When you browse on this site, cookies collect data to enhance your experience and personalize the content and advertising you see.
Visit our Privacy Policy to learn more. By continuing to use the site, you agree to this use of cookies and data.
  • In Hungary
  • List of Countries
  • For 7 days
  • Water Temperature
  • Weather Map
  • News
  • Weather Widgets
  • user-avatar
    Login

    Hourly Weather Aizawl

    Today, 12 December, Thursday

    Time Temperature Precipitation Wind Pressure Humidity
    00:00 +11°C° 0 mm 1 mps 690 mmHg 89%
    01:00 +10°C° 0 mm 1 mps 689 mmHg 90%
    02:00 +10°C° 0 mm 1 mps 689 mmHg 92%
    03:00 +10°C° 0 mm 1 mps 689 mmHg 94%
    04:00 +10°C° 0 mm 1 mps 689 mmHg 94%
    05:00 +10°C° 0 mm 1 mps 690 mmHg 95%
    06:00 +8°C° 0 mm 0 mps 690 mmHg 96%
    07:00 +12°C° 0 mm 0 mps 691 mmHg 84%
    08:00 +15°C° 0 mm 0 mps 692 mmHg 71%
    09:00 +18°C° 0 mm 0 mps 693 mmHg 59%
    10:00 +20°C° 0 mm 0 mps 693 mmHg 52%
    11:00 +21°C° 0 mm 0 mps 693 mmHg 46%
    12:00 +23°C° 0 mm 0 mps 693 mmHg 39%
    13:00 +25°C° 0 mm 1 mps 692 mmHg 39%
    14:00 +25°C° 0 mm 1 mps 691 mmHg 39%
    15:00 +24°C° 0 mm 1 mps 691 mmHg 40%
    16:00 +21°C° 0 mm 1 mps 691 mmHg 52%
    17:00 +16°C° 0 mm 0 mps 690 mmHg 65%
    18:00 +13°C° 0 mm 0 mps 690 mmHg 78%
    19:00 +13°C° 0 mm 0 mps 691 mmHg 81%
    20:00 +12°C° 0 mm 0 mps 691 mmHg 85%
    21:00 +11°C° 0 mm 0 mps 691 mmHg 88%
    22:00 +11°C° 0 mm 0 mps 691 mmHg 90%
    23:00 +11°C° 0 mm 0 mps 691 mmHg 91%

    Tomorrow, 13 December, Friday

    Time Temperature Precipitation Wind Pressure Humidity
    00:00 +11°C° 0 mm 1 mps 691 mmHg 93%
    01:00 +11°C° 0 mm 1 mps 690 mmHg 94%
    02:00 +11°C° 0 mm 1 mps 690 mmHg 95%
    03:00 +11°C° 0 mm 1 mps 690 mmHg 96%
    04:00 +10°C° 0 mm 1 mps 690 mmHg 96%
    05:00 +10°C° 0 mm 1 mps 690 mmHg 97%
    06:00 +10°C° 0 mm 1 mps 691 mmHg 97%
    07:00 +13°C° 0 mm 1 mps 692 mmHg 84%
    08:00 +15°C° 0 mm 0 mps 693 mmHg 71%
    09:00 +18°C° 0 mm 0 mps 694 mmHg 58%
    10:00 +20°C° 0 mm 0 mps 694 mmHg 50%
    11:00 +24°C° 0 mm 1 mps 694 mmHg 42%
    12:00 +26°C° 0 mm 1 mps 694 mmHg 33%
    13:00 +26°C° 0 mm 1 mps 693 mmHg 33%
    14:00 +26°C° 0 mm 1 mps 692 mmHg 33%
    15:00 +25°C° 0 mm 1 mps 692 mmHg 33%
    16:00 +22°C° 0 mm 1 mps 692 mmHg 44%
    17:00 +17°C° 0 mm 0 mps 691 mmHg 56%
    18:00 +14°C° 0 mm 0 mps 691 mmHg 68%
    19:00 +13°C° 0 mm 0 mps 692 mmHg 70%
    20:00 +13°C° 0 mm 0 mps 692 mmHg 72%
    21:00 +12°C° 0 mm 0 mps 693 mmHg 74%
    22:00 +12°C° 0 mm 0 mps 693 mmHg 76%
    23:00 +12°C° 0 mm 1 mps 692 mmHg 78%

    Day after tomorrow, 14 December, Saturday

    Time Temperature Precipitation Wind Pressure Humidity
    00:00 +12°C° 0 mm 1 mps 692 mmHg 79%
    01:00 +12°C° 0 mm 1 mps 692 mmHg 80%
    02:00 +11°C° 0 mm 1 mps 692 mmHg 82%
    03:00 +11°C° 0 mm 1 mps 691 mmHg 83%
    04:00 +11°C° 0 mm 1 mps 691 mmHg 84%
    05:00 +11°C° 0 mm 1 mps 691 mmHg 85%
    06:00 +11°C° 0 mm 1 mps 692 mmHg 86%
    07:00 +14°C° 0 mm 1 mps 693 mmHg 75%
    08:00 +16°C° 0 mm 0 mps 693 mmHg 64%
    09:00 +19°C° 0 mm 0 mps 694 mmHg 53%
    10:00 +21°C° 0 mm 0 mps 694 mmHg 46%
    11:00 +23°C° 0 mm 0 mps 694 mmHg 40%
    12:00 +25°C° 0 mm 0 mps 693 mmHg 33%
    13:00 +26°C° 0 mm 1 mps 693 mmHg 33%
    14:00 +26°C° 0 mm 1 mps 692 mmHg 34%
    15:00 +25°C° 0 mm 1 mps 692 mmHg 35%
    16:00 +22°C° 0 mm 1 mps 691 mmHg 48%
    17:00 +17°C° 0 mm 0 mps 691 mmHg 61%
    18:00 +14°C° 0 mm 0 mps 691 mmHg 74%
    19:00 +13°C° 0 mm 0 mps 691 mmHg 77%
    20:00 +13°C° 0 mm 0 mps 691 mmHg 81%
    21:00 +12°C° 0 mm 0 mps 692 mmHg 84%
    22:00 +12°C° 0 mm 0 mps 691 mmHg 86%
    23:00 +12°C° 0 mm 1 mps 691 mmHg 87%

    15 December, Sunday

    Time Temperature Precipitation Wind Pressure Humidity
    00:00 +12°C° 0 mm 1 mps 691 mmHg 89%
    01:00 +12°C° 0 mm 1 mps 691 mmHg 90%
    02:00 +11°C° 0 mm 1 mps 691 mmHg 90%
    03:00 +11°C° 0 mm 1 mps 690 mmHg 91%
    04:00 +11°C° 0 mm 1 mps 690 mmHg 91%
    05:00 +11°C° 0 mm 1 mps 690 mmHg 90%
    06:00 +11°C° 0 mm 1 mps 691 mmHg 90%
    07:00 +13°C° 0 mm 0 mps 691 mmHg 78%
    08:00 +16°C° 0 mm 0 mps 692 mmHg 66%
    09:00 +19°C° 0 mm 0 mps 693 mmHg 54%
    10:00 +21°C° 0 mm 0 mps 693 mmHg 47%
    11:00 +23°C° 0 mm 0 mps 693 mmHg 40%
    12:00 +27°C° 0 mm 1 mps 693 mmHg 34%
    13:00 +26°C° 0 mm 1 mps 692 mmHg 34%
    14:00 +26°C° 0 mm 1 mps 691 mmHg 34%
    15:00 +26°C° 0 mm 1 mps 691 mmHg 35%
    16:00 +23°C° 0 mm 1 mps 690 mmHg 47%
    17:00 +18°C° 0 mm 0 mps 690 mmHg 60%
    18:00 +14°C° 0 mm 0 mps 690 mmHg 72%
    19:00 +14°C° 0 mm 0 mps 690 mmHg 75%
    20:00 +13°C° 0 mm 0 mps 691 mmHg 77%
    21:00 +12°C° 0 mm 0 mps 691 mmHg 80%
    22:00 +12°C° 0 mm 0 mps 691 mmHg 81%
    23:00 +12°C° 0 mm 0 mps 690 mmHg 83%

    16 December, Monday

    Time Temperature Precipitation Wind Pressure Humidity
    00:00 +11°C° 0 mm 0 mps 690 mmHg 84%
    01:00 +11°C° 0 mm 0 mps 690 mmHg 85%
    02:00 +11°C° 0 mm 0 mps 690 mmHg 85%
    03:00 +11°C° 0 mm 1 mps 689 mmHg 86%
    04:00 +11°C° 0 mm 1 mps 690 mmHg 86%
    05:00 +11°C° 0 mm 1 mps 690 mmHg 85%
    06:00 +11°C° 0 mm 1 mps 690 mmHg 85%
    07:00 +13°C° 0 mm 0 mps 691 mmHg 74%
    08:00 +16°C° 0 mm 0 mps 692 mmHg 63%
    09:00 +19°C° 0 mm 0 mps 693 mmHg 52%
    10:00 +21°C° 0 mm 0 mps 693 mmHg 45%
    11:00 +23°C° 0 mm 0 mps 693 mmHg 37%
    12:00 +27°C° 0 mm 1 mps 692 mmHg 30%
    13:00 +26°C° 0 mm 1 mps 692 mmHg 32%
    14:00 +26°C° 0 mm 1 mps 692 mmHg 33%
    15:00 +26°C° 0 mm 1 mps 691 mmHg 34%
    16:00 +23°C° 0 mm 1 mps 691 mmHg 46%
    17:00 +20°C° 0 mm 1 mps 691 mmHg 57%
    18:00 +15°C° 0 mm 0 mps 690 mmHg 69%
    19:00 +14°C° 0 mm 0 mps 691 mmHg 70%
    20:00 +14°C° 0 mm 0 mps 691 mmHg 72%
    21:00 +13°C° 0 mm 0 mps 691 mmHg 74%
    22:00 +13°C° 0 mm 0 mps 691 mmHg 75%
    23:00 +12°C° 0 mm 0 mps 691 mmHg 76%

    17 December, Tuesday

    Time Temperature Precipitation Wind Pressure Humidity
    00:00 +12°C° 0 mm 0 mps 690 mmHg 77%
    01:00 +13°C° 0 mm 1 mps 690 mmHg 78%
    02:00 +12°C° 0 mm 1 mps 690 mmHg 79%
    03:00 +12°C° 0 mm 1 mps 690 mmHg 79%
    04:00 +12°C° 0 mm 1 mps 690 mmHg 79%
    05:00 +12°C° 0 mm 1 mps 690 mmHg 79%
    06:00 +12°C° 0 mm 1 mps 690 mmHg 79%
    07:00 +14°C° 0 mm 0 mps 691 mmHg 69%
    08:00 +17°C° 0 mm 0 mps 692 mmHg 59%
    09:00 +20°C° 0 mm 0 mps 693 mmHg 50%
    10:00 +21°C° 0 mm 0 mps 692 mmHg 44%
    11:00 +25°C° 0 mm 1 mps 692 mmHg 39%
    12:00 +26°C° 0 mm 1 mps 692 mmHg 33%
    13:00 +26°C° 0 mm 1 mps 691 mmHg 33%
    14:00 +26°C° 0 mm 1 mps 691 mmHg 34%
    15:00 +25°C° 0 mm 1 mps 690 mmHg 34%
    16:00 +22°C° 0 mm 1 mps 690 mmHg 45%
    17:00 +19°C° 0 mm 1 mps 690 mmHg 56%
    18:00 +14°C° 0 mm 0 mps 689 mmHg 67%
    19:00 +14°C° 0 mm 0 mps 690 mmHg 69%
    20:00 +13°C° 0 mm 0 mps 690 mmHg 71%
    21:00 +13°C° 0 mm 0 mps 690 mmHg 73%
    22:00 +12°C° 0 mm 0 mps 690 mmHg 74%
    23:00 +12°C° 0 mm 0 mps 690 mmHg 75%
    Show more